Overview Statistics Trail Chart Weather Telemetry Raw packets
 

This is the latest recevied weather packets stored in our database for station/object KO4ZGL-13. If no packets are shown the sender has not sent any weather packets the latest 10 day(s).

<< 101 102 103 104 105 106 107 >>
Time Temp. Humidity Pressure Rain* Wind** Luminosity Snow
1787882697 23.33° C 99% 1015.9 hPa 3.05 mm - 0 W/m² -
1787882393 23.33° C 99% 1015.9 hPa 3.05 mm - 0 W/m² -
1787882088 23.33° C 99% 1015.8 hPa 1.27 mm - 0 W/m² -
1787881783 23.33° C 99% 1016 hPa 1.27 mm - 0 W/m² -
1787881478 23.33° C 99% 1015.8 hPa 1.78 mm - 0 W/m² -
1787881174 23.33° C 99% 1015.9 hPa 1.78 mm - 0 W/m² -
1787880869 23.33° C 99% 1016 hPa 1.27 mm - 0 W/m² -
1787880569 23.33° C 99% 1015.9 hPa 3.05 mm - 0 W/m² -
1787880267 23.33° C 99% 1015.9 hPa 3.56 mm - 0 W/m² -
1787879962 23.33° C 99% 1015.9 hPa 1.78 mm - 0 W/m² -
1787879657 23.33° C 99% 1015.8 hPa 1.27 mm - 0 W/m² -
1787879353 23.33° C 99% 1015.7 hPa 1.27 mm - 0 W/m² -
1787879049 23.33° C 99% 1015.9 hPa 3.05 mm - 0 W/m² -
1787878744 23.33° C 99% 1015.9 hPa 3.05 mm - 0 W/m² -
1787878450 23.89° C 99% 1016 hPa 3.05 mm - 0 W/m² -
1787878139 23.89° C 99% 1016.1 hPa 4.83 mm - 0 W/m² -
1787877835 23.89° C 99% 1016 hPa 6.1 mm - 0 W/m² -
1787877530 23.89° C 99% 1015.9 hPa 6.1 mm - 0 W/m² -
1787877226 23.89° C 98% 1015.9 hPa 7.87 mm - 0 W/m² -
1787876925 24.44° C 98% 1016.1 hPa 6.1 mm - 0 W/m² -
1787876621 24.44° C 98% 1015.7 hPa 4.83 mm - 0 W/m² -
1787876321 24.44° C 98% 1016 hPa 4.83 mm - 0 W/m² -
1787876019 24.44° C 98% 1015.7 hPa 7.11 mm - 0 W/m² -
1787875714 25° C 98% 1015.9 hPa 8.89 mm - 0 W/m² -
1787875413 25° C 97% 1015.7 hPa 7.11 mm - 0 W/m² -

* Rain latest hour (hover to see other rain measurements)
** Current wind speed in m/s (hover to see current wind gust speed)